Probability
25 22 20 16 11 9 8 6 3 2 1 0 0 1 3 3 2 1 0 1 0 0 0 0 0 0 0 0 0 0 1 2 2 1 0 0 0 1 3 3 1 1 2
24 22 20 17 11 9 9 7 4 3 2 1 1 2 2 3 2 1 0 1 0 0 0 0 0 0 0 0 0 0 0 1 1 0 0 0 0 1 3 3 1 1 2
22 21 20 19 13 10 9 8 5 3 3 3 3 3 1 1 2 1 0 0 0 0 0 0 0 0 0 0 0 0 0 0 0 0 0 0 0 1 4 3 1 0 1
23 22 22 22 16 11 9 7 5 3 3 4 4 3 1 1 2 1 0 0 0 0 0 0 0 0 0 0 0 0 0 0 0 0 0 1 1 3 5 4 2 1 1
25 25 27 25 18 12 9 7 5 4 4 4 4 4 2 1 2 1 0 0 0 0 0 0 0 0 0 0 0 0 0 0 1 1 2 2 4 5 5 4 3 2 2
25 27 29 26 19 13 10 7 7 6 6 5 5 5 4 3 3 1 0 0 0 0 0 0 0 0 1 1 1 0 1 1 1 2 2 3 6 7 5 3 2 1 1
23 26 28 26 21 15 11 9 8 8 7 7 6 5 4 4 4 2 0 1 1 1 0 0 0 0 1 1 1 1 2 2 2 1 1 3 6 8 5 3 2 1 1
23 25 27 25 21 16 13 12 10 10 9 9 7 5 4 5 5 4 2 3 4 3 1 0 0 0 0 1 1 1 2 3 1 1 1 3 7 8 6 5 3 2 2
24 25 23 21 18 16 14 13 12 12 11 9 8 5 4 5 5 4 4 4 4 3 2 1 1 0 0 1 2 1 2 2 1 1 1 3 7 9 7 5 3 2 3
24 23 20 18 18 17 15 13 13 12 11 9 7 5 4 4 3 3 4 4 4 3 3 2 1 0 0 1 2 2 1 1 0 1 1 4 9 9 7 4 3 3 3
24 22 19 18 18 17 16 15 13 11 9 7 5 4 4 3 1 2 5 6 5 4 4 3 2 1 0 0 1 3 2 0 0 0 2 7 12 11 7 4 4 4 4
24 22 19 18 18 16 15 16 13 10 8 7 6 6 4 2 1 2 6 8 7 5 5 4 3 2 1 0 1 3 3 2 1 2 6 11 14 12 8 6 5 5 6
28 25 21 19 18 15 13 12 11 10 9 8 9 9 7 3 2 2 6 8 6 5 5 5 4 2 1 1 2 3 4 4 4 4 8 13 15 12 9 7 8 9 9
30 27 23 21 20 18 15 12 10 10 9 9 11 11 10 7 5 5 7 7 5 5 6 6 4 3 3 3 3 4 4 4 4 5 8 13 14 12 10 9 10 11 12
33 31 27 27 28 26 22 17 13 11 9 9 10 9 11 11 10 10 11 9 6 6 7 7 6 5 5 5 4 4 4 3 4 5 7 11 13 13 12 11 10 10 11
41 41 38 37 37 34 27 21 16 13 12 11 11 11 12 14 15 16 16 13 9 7 8 9 9 8 8 7 6 6 5 5 6 7 8 10 12 14 13 12 10 8 7
50 51 47 40 37 36 31 24 17 15 15 16 17 18 16 16 18 20 20 16 12 10 12 13 14 13 12 11 10 9 8 9 10 10 10 11 11 12 13 11 9 6 4
53 53 48 39 36 37 35 29 22 19 19 20 23 25 23 19 20 23 23 20 17 15 15 16 16 16 16 17 17 15 14 14 13 12 12 13 14 13 12 10 7 5 2
55 54 50 45 41 40 38 33 29 26 24 24 27 30 29 25 24 26 26 26 25 22 18 17 17 18 19 21 21 20 19 18 17 15 14 15 17 16 13 11 9 7 5
58 57 55 52 48 44 39 36 34 32 28 28 31 33 31 28 28 29 28 29 29 26 21 19 19 20 20 21 20 19 20 21 20 18 16 16 17 17 15 14 14 13 11
61 60 58 55 52 47 41 38 38 35 30 30 31 32 32 31 31 32 31 31 29 27 24 22 22 21 19 19 18 19 20 20 19 17 17 16 16 15 14 15 16 16 16
62 61 59 57 55 51 45 41 40 39 36 32 29 29 32 32 31 32 33 33 31 27 26 26 25 22 18 17 18 20 21 20 17 17 19 19 17 16 15 14 15 16 16
54 55 57 59 60 57 51 44 42 42 41 36 30 27 28 28 27 29 31 32 32 29 26 28 29 25 18 16 18 19 19 19 18 18 19 20 20 18 16 14 14 15 15
43 45 53 61 63 60 53 48 45 43 40 37 33 28 25 24 23 25 29 31 31 29 27 28 30 28 21 18 19 19 18 18 17 16 17 19 20 18 15 14 14 14 13
35 38 47 55 59 57 51 48 46 43 38 35 32 30 27 24 21 24 30 32 31 29 27 27 28 27 25 22 21 20 19 18 17 15 15 16 16 17 16 15 14 13 13
34 36 43 49 53 53 49 46 45 43 39 34 31 29 27 24 22 25 32 34 32 28 26 26 27 25 24 24 23 21 19 19 17 15 14 14 15 16 18 17 14 14 14
Wind_Speed
15 15 15 13 12 11 10 10 10 10 9 9 9 9 9 10 10 10 10 10 10 10 10 10 10 11 11 11 11 11 11 11 11 11 11 11 11 11 11 12 11 10 13
18 16 15 13 12 11 10 10 10 10 9 9 9 9 9 10 10 10 10 10 10 10 10 10 9 10 11 11 11 10 10 10 10 10 11 10 11 11 11 11 11 9 13
19 16 14 13 12 11 11 10 10 10 9 9 9 9 10 10 10 10 10 10 10 10 10 10 9 10 10 10 9 9 8 8 9 9 8 6 8 10 11 11 13 13 12
19 15 14 13 12 12 11 11 10 10 10 9 9 10 10 10 10 9 9 9 9 9 9 9 9 9 9 8 8 8 7 6 7 6 4 5 6 10 11 12 12 12 11
18 16 15 14 12 12 11 11 10 10 10 9 9 9 9 9 9 9 9 8 8 8 8 9 8 8 8 7 7 6 5 5 5 3 3 6 7 10 11 11 11 11 10
19 17 16 14 13 12 11 11 11 10 10 9 9 9 9 9 9 8 8 8 8 8 8 8 8 7 6 6 5 5 4 3 2 2 5 7 7 10 11 11 10 10 10
18 17 16 15 14 12 12 11 11 10 9 9 9 9 8 8 8 8 8 8 7 7 7 7 7 6 6 5 4 4 3 3 3 2 4 7 8 12 12 11 10 9 9
18 18 15 15 15 13 12 11 10 10 9 8 8 8 8 8 7 7 8 8 7 6 7 7 6 5 5 4 4 4 3 3 3 3 5 7 10 12 12 11 10 9 8
17 17 15 14 13 13 12 11 10 10 9 8 7 7 7 7 7 7 7 7 6 6 6 6 5 4 4 4 4 4 3 3 3 2 4 6 11 12 11 10 9 8 7
14 14 14 14 13 12 11 12 11 10 9 8 7 7 7 7 7 8 7 6 5 5 5 5 4 4 4 4 4 4 4 4 3 3 4 7 12 12 11 10 9 8 6
11 11 11 12 12 11 12 12 12 11 9 8 7 7 6 6 7 6 7 8 6 5 5 5 5 5 5 6 7 6 5 3 2 3 3 9 13 12 11 9 9 8 6
11 10 9 10 9 9 9 9 7 7 7 6 5 5 5 3 3 6 8 8 7 6 6 6 6 6 6 4 5 6 3 3 2 3 5 12 12 12 11 10 9 8 7
9 9 9 8 7 7 6 6 4 4 5 5 4 4 3 2 3 4 4 5 5 6 4 5 5 4 3 2 2 3 3 2 2 3 6 11 11 11 11 10 9 8 7
9 9 9 9 7 6 5 4 4 3 4 4 4 3 2 1 2 3 2 3 3 3 3 3 3 3 2 2 3 3 3 2 2 3 5 10 11 11 11 10 10 9 8
9 9 9 8 7 5 4 3 4 4 4 4 4 3 2 2 1 2 1 1 1 1 2 2 2 2 1 1 1 2 2 2 3 4 4 9 10 11 11 11 11 10 9
9 8 8 8 8 6 4 3 3 3 4 4 4 4 3 1 1 1 1 1 1 1 1 1 1 1 1 1 1 1 1 1 3 4 4 6 9 10 11 11 10 10 10
9 8 8 8 8 6 6 5 4 3 4 3 4 4 3 2 1 1 1 1 1 1 1 0 1 1 1 1 1 0 0 1 1 3 4 4 5 8 10 10 10 11 11
9 8 7 8 8 6 5 4 3 3 3 3 3 4 3 3 2 1 1 1 1 1 1 1 1 1 0 0 1 1 1 1 1 2 4 4 4 5 7 10 10 10 11
8 8 6 6 7 7 5 3 2 2 2 2 2 3 3 3 3 2 1 1 1 1 1 1 1 1 1 1 1 2 2 1 2 3 2 4 4 5 5 8 11 11 12
8 8 7 6 6 5 4 2 2 2 2 2 2 3 3 3 3 2 2 2 1 0 1 1 1 1 1 1 3 2 1 2 2 2 2 2 4 5 5 5 6 7 10
8 7 7 6 6 5 4 4 3 3 2 2 2 3 3 2 3 2 2 2 1 1 1 2 1 2 2 1 1 1 2 3 3 2 2 2 2 3 3 4 4 3 4
8 8 7 6 5 4 3 2 2 2 2 2 2 3 3 3 3 3 2 2 2 2 2 2 2 1 2 1 1 1 1 1 2 3 2 3 2 2 3 4 4 4 3
8 7 6 6 5 4 3 2 2 2 2 2 3 3 3 3 3 2 3 2 2 2 2 2 2 2 2 1 1 1 1 1 1 1 2 2 2 1 1 1 3 3 4
7 7 5 5 5 4 3 3 4 3 3 3 3 3 4 3 3 3 3 3 2 2 2 3 3 2 2 2 1 1 1 0 1 1 1 1 2 2 1 1 1 2 2
7 7 6 5 4 4 3 2 2 2 2 1 2 2 3 3 4 4 3 3 2 2 2 2 2 2 1 2 1 1 2 1 1 1 1 1 1 1 1 1 1 2 2
6 6 7 6 4 4 4 3 2 2 2 2 2 2 3 3 3 3 3 3 2 2 1 1 1 2 1 2 2 1 1 1 1 1 1 1 1 1 1 1 1 1 2
Wind_Direction
110 118 120 116 114 111 110 109 106 101 96 90 87 84 85 88 87 87 92 93 88 86 89 95 98 100 100 102 106 111 114 115 118 116 115 119 119 120 118 117 116 111 121
115 119 120 117 116 114 113 111 108 103 99 94 91 88 89 94 92 90 94 96 94 93 92 93 97 99 103 106 106 108 113 117 121 121 121 117 116 114 111 107 106 113 120
117 123 122 119 119 117 116 113 108 105 102 99 95 93 93 96 94 92 97 97 98 99 99 98 102 103 102 107 108 108 112 125 134 134 134 116 113 115 113 112 112 116 120
120 126 124 124 122 121 119 117 113 110 107 106 101 98 97 99 97 94 96 98 101 103 104 104 102 106 107 110 113 114 116 128 142 145 143 119 117 125 123 121 120 121 122
121 121 123 128 125 124 122 121 118 114 111 110 106 102 100 101 98 95 95 96 100 105 106 107 105 105 110 115 122 126 126 128 135 160 122 109 112 128 127 124 123 123 123
121 122 127 130 128 127 126 124 122 119 115 113 109 105 102 102 100 96 95 94 96 102 106 108 109 109 115 123 131 138 149 163 173 159 121 116 116 124 127 128 126 123 125
122 124 132 133 131 130 130 129 128 124 120 117 115 110 106 105 103 100 98 99 98 102 107 109 113 116 123 135 147 155 172 189 204 158 127 122 128 132 132 131 127 128 134
123 126 133 137 136 135 135 134 133 130 127 124 121 118 116 115 113 109 105 105 103 102 104 104 112 126 131 147 162 176 189 220 199 143 126 126 138 138 137 136 135 139 142
126 131 142 144 144 143 140 140 139 137 137 137 135 134 132 130 128 122 113 111 110 113 115 117 120 133 145 163 184 200 213 234 254 149 133 133 145 146 145 145 144 143 145
126 135 145 150 151 152 149 150 149 148 149 153 153 155 151 149 150 145 131 127 130 136 138 140 149 157 168 183 203 224 233 238 227 155 139 143 148 150 149 149 150 152 157
128 135 144 146 152 156 152 154 157 158 161 164 168 174 175 177 165 158 139 146 152 158 161 167 176 181 190 204 216 228 241 222 185 133 136 146 150 153 152 153 156 162 169
139 136 141 143 148 150 146 148 163 164 163 180 168 175 196 186 151 139 145 159 169 175 185 195 200 203 212 201 202 213 226 210 170 136 142 150 152 154 158 160 164 170 177
139 139 140 133 138 141 135 149 157 157 156 178 168 178 181 162 142 139 153 160 176 184 199 187 200 213 211 193 170 188 206 205 143 129 141 155 158 160 163 167 171 177 181
149 148 137 137 139 135 133 146 152 151 157 159 156 183 175 178 160 146 153 170 180 184 191 185 200 201 209 213 187 188 191 164 135 123 147 161 163 167 171 175 178 181 182
154 151 142 140 133 127 129 153 151 158 158 151 157 178 186 183 173 151 158 174 201 172 185 202 179 178 192 214 208 168 181 158 146 138 149 169 169 173 179 182 181 184 187
149 146 136 137 134 137 142 156 157 166 158 159 160 171 189 168 150 147 171 184 195 196 215 191 176 168 184 200 238 216 185 155 153 149 159 172 175 176 179 184 188 190 193
141 136 135 143 141 148 158 173 172 175 162 158 154 159 166 167 177 173 181 183 203 215 216 175 230 226 197 194 183 244 228 175 144 151 165 173 177 184 185 185 192 196 200
140 136 149 156 148 152 163 176 176 166 156 153 151 147 156 178 194 187 187 201 214 211 190 179 230 250 252 216 192 227 202 175 174 178 177 174 174 178 187 193 198 202 204
138 141 150 146 150 159 165 170 169 144 155 154 143 148 164 181 189 178 188 209 230 203 199 231 182 225 238 246 222 217 211 184 212 209 188 182 176 176 180 191 202 207 207
136 143 148 143 144 151 151 157 155 155 165 148 143 151 162 178 194 186 184 194 225 194 253 265 268 228 233 241 249 226 219 209 201 204 218 191 176 186 185 185 195 208 209
134 139 146 149 149 152 158 171 170 178 179 165 167 159 161 184 197 190 198 181 186 171 228 272 261 256 246 257 262 246 231 211 197 196 199 190 179 178 176 175 180 183 195
137 144 145 145 149 161 157 168 167 171 181 178 166 159 174 195 205 192 185 197 181 180 210 238 246 253 252 226 234 242 226 224 229 206 186 193 188 178 178 179 174 179 184
137 141 149 145 148 152 143 164 157 149 176 173 167 170 190 197 196 198 189 202 198 186 197 220 231 232 250 246 232 259 269 247 242 203 207 196 169 158 180 164 174 178 179
136 137 128 138 143 147 156 182 178 176 183 182 173 177 184 189 190 196 200 200 208 193 191 208 211 238 233 255 238 233 236 231 269 257 243 194 176 179 188 203 166 165 168
144 145 139 132 140 145 155 176 179 181 168 157 154 161 179 188 198 199 190 201 198 205 201 218 203 218 229 250 258 255 259 251 257 245 245 231 274 213 169 170 163 160 165
143 148 144 144 146 152 157 167 181 170 146 147 155 168 191 185 188 198 187 188 184 194 194 232 226 210 244 266 276 278 260 243 251 259 262 233 224 223 168 168 190 183 177